Overview Statistics Trail Chart Weather Telemetry Raw packets
 

This is the latest recevied weather packets stored in our database for station/object KJ6HT. If no packets are shown the sender has not sent any weather packets the latest 10 day(s).

<< 1 2 3 4 >>
Time Temp. Humidity Pressure Rain* Wind** Luminosity Snow
1788683431 23.89° C 42% 1011.3 hPa 0 mm - - -
1788682510 22.78° C 45% 1011.4 hPa 0 mm - - -
1788681641 23.33° C 43% 1011.3 hPa 0 mm - - -
1788680702 23.33° C 42% 1011.3 hPa 0 mm - - -
1788679800 23.33° C 43% 1011.4 hPa 0 mm - - -
1788678957 24.44° C 41% 1011.3 hPa 0 mm - - -
1788678054 23.89° C 42% 1011.3 hPa 0 mm - - -
1788677154 24.44° C 39% 1011.3 hPa 0 mm - - -
1788676255 25° C 37% 1011.2 hPa 0 mm - - -
1788675352 25° C 36% 1011.3 hPa 0 mm - - -
1788674450 26.11° C 33% 1011.4 hPa 0 mm - - -
1788673577 26.11° C 34% 1011.4 hPa 0 mm - - -
1788672661 26.11° C 31% 1011.4 hPa 0 mm - - -
1788671748 27.22° C 30% 1011.3 hPa 0 mm - - -
1788670853 26.11° C 31% 1011.4 hPa 0 mm - - -
1788669947 27.78° C 29% 1011.4 hPa 0 mm - - -
1788669052 27.22° C 30% 1011.4 hPa 0 mm - - -
1788668147 28.89° C 27% 1011.3 hPa 0 mm - - -
1788667246 28.33° C 28% 1011.1 hPa 0 mm - - -
1788666344 27.78° C 29% 1011 hPa 0 mm - - -
1788665458 27.78° C 28% 1010.9 hPa 0 mm - - -
1788664542 27.78° C 29% 1010.7 hPa 0 mm - - -
1788663646 28.33° C 30% 1010.5 hPa 0 mm - - -
1788662746 28.33° C 30% 1010.4 hPa 0 mm - - -
1788661850 28.89° C 30% 1010.5 hPa 0 mm - - -

* Rain latest hour (hover to see other rain measurements)
** Current wind speed in m/s (hover to see current wind gust speed)